Provincetown, MA

5:11 AM EDT on June 27, 2017 (GMT -0400)
Provincetown Municipal

Weather History for KPVC - May, 2014

Change the Weather History Date:

Sunday, May 11, 2014

  Actual Average Record
Temperature  
Mean Temperature 60 °F -  
Max Temperature 73 °F 58 °F 82 °F (2004)
Min Temperature 48 °F 44 °F 39 °F (2016)
Degree Days  
Heating Degree Days 4    
Growing Degree Days 10 (Base 50)    
Moisture  
Dew Point 48 °F    
Average Humidity 68    
Maximum Humidity 94    
Minimum Humidity 29    
Precipitation  
Precipitation 0.03 in - - ()
Sea Level Pressure  
Sea Level Pressure 29.91 in    
Wind  
Wind Speed 11 mph (WSW)    
Max Wind Speed 18 mph    
Max Gust Speed 25 mph    
Visibility 10 miles    
Events      
Averages and records for this station are not official NWS values.
T = Trace of Precipitation, MM = Missing Value Source: NWS Daily Summary

Daily Weather History Graph

Daily Weather History Graph

Search for Another Location

Airport or City:

Trip Planner

Search our weather history database for the weather conditions in past years. The results will help you decide how hot, cold, wet, or windy it might be!

Date:

Astronomy

May. 11, 2014 Rise Set
Actual Time 5:24 AM EDT 7:50 PM EDT
Civil Twilight 4:52 AM EDT 8:22 PM EDT
Nautical Twilight 4:13 AM EDT 9:01 PM EDT
Astronomical Twilight 3:30 AM EDT 9:45 PM EDT
Moon 4:40 PM EDT (5/11) 3:31 AM EDT (5/11)
Length of Visible Light 15h 29m
Length of Day
14h 26m
Waxing Gibbous, 89% of the Moon is Illuminated
May 11
Waxing Gibbous
May 14
Full
May 21
Last Quarter
May 28
New
Jun 5
First Quarter

Hourly Weather History & Observations

Time (EDT) Temp. Dew Point Humidity Pressure Visibility Wind Dir Wind Speed Gust Speed Precip Events Conditions
12:15 AM 53.6 °F 51.8 °F 94% 29.80 in 8.0 mi SW 18.4 mph - N/A   Scattered Clouds
12:35 AM 53.6 °F 51.8 °F 94% 29.80 in 9.0 mi SSW 15.0 mph 25.3 mph N/A   Scattered Clouds
12:55 AM 53.6 °F 51.8 °F 94% 29.80 in 9.0 mi SSW 15.0 mph 20.7 mph N/A   Clear
1:15 AM 53.6 °F 51.8 °F 94% 29.80 in 10.0 mi SW 11.5 mph - N/A   Clear
1:35 AM 53.6 °F 51.8 °F 94% 29.79 in 9.0 mi SW 9.2 mph - N/A   Partly Cloudy
1:55 AM 53.6 °F 51.8 °F 94% 29.79 in 9.0 mi SW 8.1 mph - N/A   Partly Cloudy
2:15 AM 53.6 °F 51.8 °F 94% 29.79 in 10.0 mi SW 11.5 mph - N/A   Partly Cloudy
2:35 AM 53.6 °F 51.8 °F 94% 29.79 in 10.0 mi SW 10.4 mph - N/A   Clear
2:55 AM 55.4 °F 51.8 °F 88% 29.80 in 10.0 mi SW 10.4 mph - N/A   Clear
3:15 AM 53.6 °F 51.8 °F 94% 29.79 in 10.0 mi SW 10.4 mph - N/A   Scattered Clouds
3:35 AM 53.6 °F 51.8 °F 94% 29.80 in 10.0 mi WSW 10.4 mph - N/A   Mostly Cloudy
3:55 AM 55.4 °F 51.8 °F 88% 29.81 in 8.0 mi WSW 8.1 mph - N/A   Mostly Cloudy
4:15 AM 55.4 °F 53.6 °F 94% 29.81 in 6.0 mi SW 10.4 mph - N/A   Mostly Cloudy
4:35 AM 55.4 °F 53.6 °F 94% 29.81 in 7.0 mi SW 10.4 mph - N/A   Mostly Cloudy
4:55 AM 53.6 °F 51.8 °F 94% 29.82 in 7.0 mi SW 10.4 mph - N/A   Overcast
5:15 AM 53.6 °F 51.8 °F 94% 29.84 in 7.0 mi SW 10.4 mph - 0.01 in   Overcast
5:35 AM 55.4 °F 53.6 °F 94% 29.86 in 7.0 mi West 9.2 mph - 0.01 in   Overcast
5:55 AM 55.4 °F 48.2 °F 77% 29.88 in 5.0 mi West 12.7 mph 24.2 mph 0.01 in   Overcast
6:15 AM 55.4 °F 48.2 °F 77% 29.88 in 10.0 mi WSW 8.1 mph - N/A   Overcast
6:35 AM 53.6 °F 50.0 °F 88% 29.88 in 10.0 mi SSW 3.5 mph - N/A   Mostly Cloudy
6:55 AM 53.6 °F 50.0 °F 88% 29.88 in 10.0 mi WSW 4.6 mph - N/A   Partly Cloudy
7:15 AM 55.4 °F 50.0 °F 82% 29.90 in 10.0 mi West 10.4 mph - N/A   Scattered Clouds
7:35 AM 55.4 °F 51.8 °F 88% 29.90 in 10.0 mi West 11.5 mph - N/A   Scattered Clouds
7:55 AM 55.4 °F 51.8 °F 88% 29.92 in 10.0 mi West 11.5 mph - N/A   Clear
8:15 AM 55.4 °F 51.8 °F 88% 29.92 in 10.0 mi West 11.5 mph - N/A   Clear
8:35 AM 57.2 °F 53.6 °F 88% 29.93 in 10.0 mi West 10.4 mph - N/A   Clear
8:55 AM 60.8 °F 53.6 °F 77% 29.93 in 10.0 mi West 11.5 mph - N/A   Clear
9:15 AM 60.8 °F 51.8 °F 72% 29.93 in 10.0 mi West 11.5 mph - N/A   Clear
9:35 AM 62.6 °F 51.8 °F 68% 29.93 in 10.0 mi West 10.4 mph - N/A   Clear
9:55 AM 64.4 °F 51.8 °F 64% 29.94 in 10.0 mi West 11.5 mph - N/A   Clear
10:15 AM 64.4 °F 51.8 °F 64% 29.94 in 10.0 mi West 13.8 mph - N/A   Clear
10:35 AM 66.2 °F 50.0 °F 56% 29.95 in 10.0 mi WSW 12.7 mph - N/A   Clear
10:55 AM 68.0 °F 48.2 °F 49% 29.95 in 10.0 mi West 10.4 mph - N/A   Clear
11:15 AM 66.2 °F 46.4 °F 49% 29.95 in 10.0 mi West 9.2 mph - N/A   Clear
11:35 AM 66.2 °F 44.6 °F 46% 29.95 in 10.0 mi West 10.4 mph - N/A   Clear
11:55 AM 68.0 °F 44.6 °F 43% 29.95 in 10.0 mi West 8.1 mph - N/A   Clear
12:15 PM 68.0 °F 44.6 °F 43% 29.94 in 10.0 mi WNW 6.9 mph - N/A   Clear
12:35 PM 69.8 °F 42.8 °F 38% 29.94 in 10.0 mi WNW 8.1 mph - 0.01 in   Clear
12:55 PM 69.8 °F 42.8 °F 38% 29.94 in 10.0 mi WNW 6.9 mph - 0.01 in   Clear
1:15 PM 71.6 °F 42.8 °F 35% 29.93 in 10.0 mi West 3.5 mph - N/A   Clear
1:35 PM 71.6 °F 42.8 °F 35% 29.93 in 10.0 mi WSW 6.9 mph - N/A   Clear
1:55 PM 73.4 °F 42.8 °F 33% 29.94 in 10.0 mi WSW 10.4 mph - N/A   Clear
2:15 PM 73.4 °F 41.0 °F 31% 29.93 in 10.0 mi West 8.1 mph - N/A   Clear
2:35 PM 73.4 °F 41.0 °F 31% 29.93 in 10.0 mi SSW 5.8 mph - N/A   Clear
2:55 PM 73.4 °F 39.2 °F 29% 29.93 in 10.0 mi WSW 8.1 mph - N/A   Clear
3:15 PM 71.6 °F 41.0 °F 33% 29.93 in 10.0 mi SSW 6.9 mph - N/A   Clear
3:35 PM 73.4 °F 44.6 °F 36% 29.93 in 10.0 mi SSW 11.5 mph - N/A   Clear
3:55 PM 69.8 °F 46.4 °F 43% 29.93 in 10.0 mi SSW 12.7 mph - N/A   Clear
4:15 PM 69.8 °F 46.4 °F 43% 29.92 in 10.0 mi SW 15.0 mph - N/A   Clear
4:55 PM 68.0 °F 46.4 °F 46% 29.92 in 10.0 mi SSW 12.7 mph 20.7 mph N/A   Clear
5:15 PM 66.2 °F 46.4 °F 49% 29.92 in 10.0 mi SSW 12.7 mph 19.6 mph N/A   Clear
5:35 PM 66.2 °F 46.4 °F 49% 29.93 in 10.0 mi SSW 13.8 mph 18.4 mph N/A   Clear
5:55 PM 66.2 °F 46.4 °F 49% 29.93 in 10.0 mi SSW 11.5 mph - N/A   Clear
6:15 PM 66.2 °F 46.4 °F 49% 29.93 in 10.0 mi SSW 12.7 mph - N/A   Clear
6:35 PM 64.4 °F 46.4 °F 52% 29.93 in 10.0 mi SSW 12.7 mph - N/A   Clear
6:55 PM 62.6 °F 46.4 °F 55% 29.94 in 10.0 mi SSW 11.5 mph - N/A   Clear
7:15 PM 62.6 °F 46.4 °F 55% 29.94 in 10.0 mi SSW 12.7 mph - N/A   Clear
7:35 PM 60.8 °F 46.4 °F 59% 29.95 in 10.0 mi SSW 10.4 mph - N/A   Clear
7:55 PM 59.0 °F 46.4 °F 63% 29.96 in 10.0 mi SW 10.4 mph - N/A   Clear
8:15 PM 57.2 °F 44.6 °F 63% 29.97 in 10.0 mi SW 6.9 mph - N/A   Clear
8:35 PM 55.4 °F 46.4 °F 72% 29.98 in 10.0 mi SW 5.8 mph - N/A   Clear
8:55 PM 55.4 °F 46.4 °F 72% 30.00 in 10.0 mi SW 6.9 mph - N/A   Clear
9:15 PM 55.4 °F 46.4 °F 72% 30.00 in 10.0 mi SW 4.6 mph - N/A   Clear
9:35 PM 55.4 °F 46.4 °F 72% 30.01 in 10.0 mi SSW 3.5 mph - N/A   Clear
9:55 PM 55.4 °F 46.4 °F 72% 30.01 in 10.0 mi Calm Calm - N/A   Clear
10:15 PM 51.8 °F 44.6 °F 76% 30.02 in 10.0 mi Calm Calm - N/A   Clear
10:35 PM 50.0 °F 42.8 °F 76% 30.02 in 10.0 mi Calm Calm - 0.01 in   Clear
10:55 PM 51.8 °F 44.6 °F 76% 30.02 in 10.0 mi Calm Calm - 0.01 in   Clear
11:15 PM 48.2 °F 42.8 °F 82% 30.02 in 10.0 mi Calm Calm - N/A   Clear
11:35 PM 50.0 °F 42.8 °F 76% 30.03 in 10.0 mi West 3.5 mph - N/A   Clear